Time,TemperatureF,DewpointF,PressureIn,WindDirection,WindDirectionDegrees,WindSpeedMPH,WindSpeedGustMPH,Humidity,HourlyPrecipIn,Conditions,Clouds,dailyrainin,SoftwareType,DateUTC
2013-02-28 00:02:00,44.6,37.4,29.54,SW,232,0.0,-999.9,76,-99.99,,,-99.99,,2013-02-28 05:02:00,
2013-02-28 00:06:00,44.6,37.4,29.54,SW,232,0.0,-999.9,76,-99.99,,,-99.99,,2013-02-28 05:06:00,
2013-02-28 00:12:00,44.6,37.4,29.54,West,268,2.3,-999.9,76,-99.99,,,-99.99,,2013-02-28 05:12:00,
2013-02-28 00:16:00,44.6,37.4,29.54,West,268,2.3,-999.9,76,-99.99,,,-99.99,,2013-02-28 05:16:00,
2013-02-28 00:22:00,46.4,37.4,29.54,WNW,294,5.8,-999.9,71,-99.99,,,-99.99,,2013-02-28 05:22:00,
2013-02-28 00:30:00,46.4,37.4,29.54,WNW,283,4.6,-999.9,71,-99.99,,,-99.99,,2013-02-28 05:30:00,
2013-02-28 00:36:00,46.4,37.4,29.54,WNW,283,4.6,-999.9,71,-99.99,,,-99.99,,2013-02-28 05:36:00,
2013-02-28 00:42:00,46.4,37.4,29.54,SW,231,3.5,-999.9,71,-99.99,,,-99.99,,2013-02-28 05:42:00,
2013-02-28 00:50:00,44.6,37.4,29.54,SW,234,2.3,-999.9,76,-99.99,,,-99.99,,2013-02-28 05:50:00,
2013-02-28 00:56:00,44.6,37.4,29.54,SW,234,2.3,-999.9,76,-99.99,,,-99.99,,2013-02-28 05:56:00,
2013-02-28 01:02:00,44.6,37.4,29.54,WSW,247,1.2,-999.9,76,-99.99,,,-99.99,,2013-02-28 06:02:00,
2013-02-28 02:12:00,44.6,37.4,29.53,South,169,1.2,-999.9,76,-99.99,,,-99.99,,2013-02-28 07:12:00,
2013-02-28 02:20:00,44.6,37.4,29.53,SW,217,3.5,-999.9,76,-99.99,,,-99.99,,2013-02-28 07:20:00,
2013-02-28 02:26:00,44.6,37.4,29.53,SW,217,3.5,-999.9,76,-99.99,,,-99.99,,2013-02-28 07:26:00,
2013-02-28 02:32:00,44.6,37.4,29.53,SSW,207,1.2,-999.9,76,-99.99,,,-99.99,,2013-02-28 07:32:00,
2013-02-28 02:40:00,44.6,37.4,29.53,SW,220,0.0,-999.9,76,-99.99,,,-99.99,,2013-02-28 07:40:00,
2013-02-28 02:46:00,44.6,37.4,29.53,SW,220,0.0,-999.9,76,-99.99,,,-99.99,,2013-02-28 07:46:00,
2013-02-28 02:52:00,44.6,37.4,29.52,WNW,289,0.0,-999.9,76,-99.99,,,-99.99,,2013-02-28 07:52:00,
2013-02-28 03:00:00,44.6,37.4,29.52,North,0,0.0,-999.9,76,-99.99,,,-99.99,,2013-02-28 08:00:00,
2013-02-28 03:08:00,44.6,37.4,29.52,North,0,0.0,-999.9,76,-99.99,,,-99.99,,2013-02-28 08:08:00,
2013-02-28 03:14:00,44.6,37.4,29.52,North,0,0.0,-999.9,76,-99.99,,,-99.99,,2013-02-28 08:14:00,
2013-02-28 03:22:00,44.6,37.4,29.52,SW,214,3.5,-999.9,76,-99.99,,,-99.99,,2013-02-28 08:22:00,
2013-02-28 03:28:00,44.6,37.4,29.52,SW,214,3.5,-999.9,76,-99.99,,,-99.99,,2013-02-28 08:28:00,
2013-02-28 03:34:00,42.8,35.6,29.52,SW,215,2.3,-999.9,76,-99.99,,,-99.99,,2013-02-28 08:34:00,
2013-02-28 03:42:00,44.6,37.4,29.52,SW,235,1.2,-999.9,76,-99.99,,,-99.99,,2013-02-28 08:42:00,
2013-02-28 03:48:00,44.6,37.4,29.52,SW,235,1.2,-999.9,76,-99.99,,,-99.99,,2013-02-28 08:48:00,
2013-02-28 03:54:00,44.6,37.4,29.52,SW,230,0.0,-999.9,76,-99.99,,,-99.99,,2013-02-28 08:54:00,
2013-02-28 04:02:00,44.6,37.4,29.52,North,0,0.0,-999.9,76,-99.99,,,-99.99,,2013-02-28 09:02:00,
2013-02-28 04:08:00,44.6,37.4,29.52,North,0,0.0,-999.9,76,-99.99,,,-99.99,,2013-02-28 09:08:00,
2013-02-28 04:14:00,42.8,37.4,29.52,East,80,0.0,-999.9,81,-99.99,,,-99.99,,2013-02-28 09:14:00,
2013-02-28 04:22:00,42.8,37.4,29.53,SE,137,2.3,-999.9,81,-99.99,,,-99.99,,2013-02-28 09:22:00,
2013-02-28 04:28:00,42.8,37.4,29.53,SE,137,2.3,-999.9,81,-99.99,,,-99.99,,2013-02-28 09:28:00,
2013-02-28 04:34:00,44.6,39.2,29.53,SSE,153,0.0,-999.9,81,-99.99,,,-99.99,,2013-02-28 09:34:00,
2013-02-28 04:42:00,44.6,37.4,29.53,North,0,0.0,-999.9,76,-99.99,,,-99.99,,2013-02-28 09:42:00,
2013-02-28 04:48:00,44.6,37.4,29.53,North,0,0.0,-999.9,76,-99.99,,,-99.99,,2013-02-28 09:48:00,
2013-02-28 04:54:00,44.6,39.2,29.52,North,0,0.0,-999.9,81,-99.99,,,-99.99,,2013-02-28 09:54:00,
2013-02-28 05:02:00,44.6,39.2,29.52,North,0,0.0,-999.9,81,-99.99,,,-99.99,,2013-02-28 10:02:00,
2013-02-28 05:08:00,44.6,39.2,29.52,North,0,0.0,-999.9,81,-99.99,,,-99.99,,2013-02-28 10:08:00,
2013-02-28 05:14:00,44.6,39.2,29.52,North,0,0.0,-999.9,81,-99.99,,,-99.99,,2013-02-28 10:14:00,
2013-02-28 05:22:00,44.6,39.2,29.52,North,0,0.0,-999.9,81,-99.99,,,-99.99,,2013-02-28 10:22:00,
2013-02-28 05:28:00,44.6,39.2,29.52,North,0,0.0,-999.9,81,-99.99,,,-99.99,,2013-02-28 10:28:00,
2013-02-28 05:34:00,44.6,39.2,29.52,North,0,0.0,-999.9,81,-99.99,,,-99.99,,2013-02-28 10:34:00,
2013-02-28 05:42:00,44.6,39.2,29.52,North,0,0.0,-999.9,81,-99.99,,,-99.99,,2013-02-28 10:42:00,
2013-02-28 05:48:00,44.6,39.2,29.52,North,0,0.0,-999.9,81,-99.99,,,-99.99,,2013-02-28 10:48:00,
2013-02-28 05:54:00,44.6,39.2,29.52,WSW,237,0.0,-999.9,81,-99.99,,,-99.99,,2013-02-28 10:54:00,
2013-02-28 06:02:00,44.6,39.2,29.52,SW,214,0.0,-999.9,81,-99.99,,,-99.99,,2013-02-28 11:02:00,
2013-02-28 06:08:00,44.6,39.2,29.52,SW,214,0.0,-999.9,81,-99.99,,,-99.99,,2013-02-28 11:08:00,
2013-02-28 06:14:00,44.6,39.2,29.52,SW,227,1.2,-999.9,81,-99.99,,,-99.99,,2013-02-28 11:14:00,
2013-02-28 06:22:00,44.6,39.2,29.52,WSW,255,1.2,-999.9,81,-99.99,,,-99.99,,2013-02-28 11:22:00,
2013-02-28 06:28:00,44.6,39.2,29.52,WSW,255,1.2,-999.9,81,-99.99,,,-99.99,,2013-02-28 11:28:00,
2013-02-28 06:34:00,44.6,37.4,29.52,WSW,245,3.5,-999.9,76,-99.99,,,-99.99,,2013-02-28 11:34:00,
2013-02-28 06:42:00,44.6,37.4,29.52,WSW,257,1.2,-999.9,76,-99.99,,,-99.99,,2013-02-28 11:42:00,
2013-02-28 06:48:00,44.6,37.4,29.52,WSW,257,1.2,-999.9,76,-99.99,,,-99.99,,2013-02-28 11:48:00,
2013-02-28 06:54:00,44.6,35.6,29.53,WNW,283,11.5,-999.9,71,-99.99,,,-99.99,,2013-02-28 11:54:00,
2013-02-28 07:02:00,46.4,37.4,29.53,West,275,8.1,-999.9,71,-99.99,,,-99.99,,2013-02-28 12:02:00,
2013-02-28 07:08:00,46.4,37.4,29.53,West,275,8.1,-999.9,71,-99.99,,,-99.99,,2013-02-28 12:08:00,
2013-02-28 07:14:00,44.6,37.4,29.53,WSW,247,4.6,-999.9,76,-99.99,,,-99.99,,2013-02-28 12:14:00,
2013-02-28 07:22:00,44.6,37.4,29.53,West,259,5.8,-999.9,76,-99.99,,,-99.99,,2013-02-28 12:22:00,
2013-02-28 07:28:00,44.6,37.4,29.53,West,259,5.8,-999.9,76,-99.99,,,-99.99,,2013-02-28 12:28:00,
2013-02-28 07:34:00,44.6,37.4,29.53,West,271,5.8,-999.9,76,-99.99,,,-99.99,,2013-02-28 12:34:00,
2013-02-28 07:42:00,44.6,35.6,29.53,West,275,4.6,-999.9,71,-99.99,,,-99.99,,2013-02-28 12:42:00,
2013-02-28 07:48:00,44.6,35.6,29.53,West,275,4.6,-999.9,71,-99.99,,,-99.99,,2013-02-28 12:48:00,
2013-02-28 07:54:00,44.6,35.6,29.53,West,280,9.2,-999.9,71,-99.99,,,-99.99,,2013-02-28 12:54:00,
2013-02-28 08:02:00,44.6,35.6,29.53,West,281,6.9,-999.9,71,-99.99,,,-99.99,,2013-02-28 13:02:00,
2013-02-28 08:08:00,44.6,35.6,29.53,West,281,6.9,-999.9,71,-99.99,,,-99.99,,2013-02-28 13:08:00,
2013-02-28 08:14:00,46.4,37.4,29.53,West,272,6.9,-999.9,71,-99.99,,,-99.99,,2013-02-28 13:14:00,
2013-02-28 08:22:00,46.4,37.4,29.53,West,262,5.8,-999.9,71,-99.99,,,-99.99,,2013-02-28 13:22:00,
2013-02-28 08:28:00,46.4,37.4,29.53,West,262,5.8,-999.9,71,-99.99,,,-99.99,,2013-02-28 13:28:00,
2013-02-28 08:34:00,46.4,37.4,29.54,West,271,8.1,-999.9,71,-99.99,,,-99.99,,2013-02-28 13:34:00,
2013-02-28 08:42:00,44.6,35.6,29.54,NW,309,11.5,-999.9,71,-99.99,,,-99.99,,2013-02-28 13:42:00,
2013-02-28 08:48:00,44.6,35.6,29.54,NW,309,11.5,-999.9,71,-99.99,,,-99.99,,2013-02-28 13:48:00,
2013-02-28 08:54:00,46.4,37.4,29.54,West,269,5.8,-999.9,71,-99.99,,,-99.99,,2013-02-28 13:54:00,
2013-02-28 09:02:00,44.6,35.6,29.54,WNW,289,4.6,-999.9,71,-99.99,,,-99.99,,2013-02-28 14:02:00,
2013-02-28 09:08:00,44.6,35.6,29.54,WNW,289,4.6,-999.9,71,-99.99,,,-99.99,,2013-02-28 14:08:00,
2013-02-28 09:14:00,44.6,35.6,29.54,WSW,245,4.6,-999.9,71,-99.99,,,-99.99,,2013-02-28 14:14:00,
2013-02-28 09:22:00,44.6,35.6,29.54,WNW,295,5.8,-999.9,71,-99.99,,,-99.99,,2013-02-28 14:22:00,
2013-02-28 09:28:00,44.6,35.6,29.54,WNW,295,5.8,-999.9,71,-99.99,,,-99.99,,2013-02-28 14:28:00,
2013-02-28 09:34:00,46.4,37.4,29.54,West,268,5.8,-999.9,71,-99.99,,,-99.99,,2013-02-28 14:34:00,
2013-02-28 09:42:00,44.6,35.6,29.54,WNW,297,12.7,-999.9,71,-99.99,,,-99.99,,2013-02-28 14:42:00,
2013-02-28 09:48:00,44.6,35.6,29.54,WNW,297,12.7,-999.9,71,-99.99,,,-99.99,,2013-02-28 14:48:00,
2013-02-28 09:54:00,44.6,35.6,29.54,WNW,287,9.2,-999.9,71,-99.99,,,-99.99,,2013-02-28 14:54:00,
2013-02-28 10:02:00,44.6,35.6,29.53,West,278,9.2,-999.9,71,-99.99,,,-99.99,,2013-02-28 15:02:00,
2013-02-28 10:08:00,44.6,35.6,29.53,West,278,9.2,-999.9,71,-99.99,,,-99.99,,2013-02-28 15:08:00,
2013-02-28 10:14:00,46.4,37.4,29.53,West,261,9.2,-999.9,71,-99.99,,,-99.99,,2013-02-28 15:14:00,
2013-02-28 10:22:00,46.4,37.4,29.52,NW,323,9.2,-999.9,71,-99.99,,,-99.99,,2013-02-28 15:22:00,
2013-02-28 10:28:00,46.4,37.4,29.52,NW,323,9.2,-999.9,71,-99.99,,,-99.99,,2013-02-28 15:28:00,
2013-02-28 10:34:00,46.4,35.6,29.52,NW,323,8.1,-999.9,66,-99.99,,,-99.99,,2013-02-28 15:34:00,
2013-02-28 10:42:00,46.4,35.6,29.52,NW,323,8.1,-999.9,66,-99.99,,,-99.99,,2013-02-28 15:42:00,
2013-02-28 10:48:00,46.4,35.6,29.52,NW,323,8.1,-999.9,66,-99.99,,,-99.99,,2013-02-28 15:48:00,
2013-02-28 10:54:00,48.2,35.6,29.51,NW,322,9.2,-999.9,62,-99.99,,,-99.99,,2013-02-28 15:54:00,
2013-02-28 11:02:00,48.2,35.6,29.50,West,270,9.2,-999.9,62,-99.99,,,-99.99,,2013-02-28 16:02:00,
2013-02-28 11:08:00,48.2,35.6,29.50,West,270,9.2,-999.9,62,-99.99,,,-99.99,,2013-02-28 16:08:00,
2013-02-28 11:14:00,48.2,33.8,29.49,North,352,9.2,-999.9,58,-99.99,,,-99.99,,2013-02-28 16:14:00,
2013-02-28 11:22:00,48.2,35.6,29.49,WNW,293,8.1,-999.9,62,-99.99,,,-99.99,,2013-02-28 16:22:00,
2013-02-28 11:28:00,48.2,35.6,29.49,WNW,293,8.1,-999.9,62,-99.99,,,-99.99,,2013-02-28 16:28:00,
2013-02-28 11:34:00,48.2,33.8,29.48,North,4,9.2,-999.9,58,-99.99,,,-99.99,,2013-02-28 16:34:00,
2013-02-28 11:42:00,48.2,33.8,29.47,WNW,298,11.5,-999.9,58,-99.99,,,-99.99,,2013-02-28 16:42:00,
2013-02-28 11:48:00,48.2,33.8,29.47,WNW,298,11.5,-999.9,58,-99.99,,,-99.99,,2013-02-28 16:48:00,
2013-02-28 11:54:00,50.0,33.8,29.47,SW,216,4.6,-999.9,54,-99.99,,,-99.99,,2013-02-28 16:54:00,
2013-02-28 12:02:00,50.0,33.8,29.46,NW,304,8.1,-999.9,54,-99.99,,,-99.99,,2013-02-28 17:02:00,
2013-02-28 12:08:00,50.0,33.8,29.46,NW,304,8.1,-999.9,54,-99.99,,,-99.99,,2013-02-28 17:08:00,
2013-02-28 12:14:00,50.0,33.8,29.46,WSW,243,2.3,-999.9,54,-99.99,,,-99.99,,2013-02-28 17:14:00,
2013-02-28 12:22:00,50.0,33.8,29.46,SW,235,2.3,-999.9,54,-99.99,,,-99.99,,2013-02-28 17:22:00,
2013-02-28 12:28:00,50.0,33.8,29.46,SW,235,2.3,-999.9,54,-99.99,,,-99.99,,2013-02-28 17:28:00,
2013-02-28 12:34:00,50.0,32.0,29.46,North,0,0.0,-999.9,50,-99.99,,,-99.99,,2013-02-28 17:34:00,
2013-02-28 12:42:00,50.0,32.0,29.45,NNW,327,1.2,-999.9,50,-99.99,,,-99.99,,2013-02-28 17:42:00,
2013-02-28 12:48:00,50.0,32.0,29.45,NNW,327,1.2,-999.9,50,-99.99,,,-99.99,,2013-02-28 17:48:00,
2013-02-28 12:54:00,50.0,30.2,29.45,North,349,8.1,-999.9,47,-99.99,,,-99.99,,2013-02-28 17:54:00,
2013-02-28 13:02:00,51.8,32.0,29.44,NW,325,13.8,-999.9,47,-99.99,,,-99.99,,2013-02-28 18:02:00,
2013-02-28 13:08:00,51.8,32.0,29.44,NW,325,13.8,-999.9,47,-99.99,,,-99.99,,2013-02-28 18:08:00,
2013-02-28 13:14:00,50.0,30.2,29.44,NNW,329,10.4,-999.9,47,-99.99,,,-99.99,,2013-02-28 18:14:00,
2013-02-28 13:22:00,50.0,30.2,29.44,WNW,283,11.5,-999.9,47,-99.99,,,-99.99,,2013-02-28 18:22:00,
2013-02-28 13:28:00,50.0,30.2,29.44,WNW,283,11.5,-999.9,47,-99.99,,,-99.99,,2013-02-28 18:28:00,
2013-02-28 13:34:00,50.0,30.2,29.44,North,349,6.9,-999.9,47,-99.99,,,-99.99,,2013-02-28 18:34:00,
2013-02-28 13:42:00,50.0,30.2,29.45,WNW,299,10.4,-999.9,47,-99.99,,,-99.99,,2013-02-28 18:42:00,
2013-02-28 13:48:00,50.0,30.2,29.45,WNW,299,10.4,-999.9,47,-99.99,,,-99.99,,2013-02-28 18:48:00,
2013-02-28 13:54:00,50.0,30.2,29.45,West,260,3.5,-999.9,47,-99.99,,,-99.99,,2013-02-28 18:54:00,
2013-02-28 14:02:00,50.0,32.0,29.45,North,11,5.8,-999.9,50,-99.99,,,-99.99,,2013-02-28 19:02:00,
2013-02-28 14:08:00,50.0,32.0,29.45,North,11,5.8,-999.9,50,-99.99,,,-99.99,,2013-02-28 19:08:00,
2013-02-28 14:14:00,50.0,30.2,29.45,WNW,303,8.1,-999.9,47,-99.99,,,-99.99,,2013-02-28 19:14:00,
2013-02-28 14:22:00,50.0,30.2,29.45,WNW,284,12.7,-999.9,47,-99.99,,,-99.99,,2013-02-28 19:22:00,
2013-02-28 14:28:00,50.0,30.2,29.45,WNW,284,12.7,-999.9,47,-99.99,,,-99.99,,2013-02-28 19:28:00,
2013-02-28 14:34:00,50.0,30.2,29.45,West,272,9.2,-999.9,47,-99.99,,,-99.99,,2013-02-28 19:34:00,
2013-02-28 14:42:00,50.0,30.2,29.45,West,268,13.8,-999.9,47,-99.99,,,-99.99,,2013-02-28 19:42:00,
2013-02-28 14:48:00,50.0,30.2,29.45,West,268,13.8,-999.9,47,-99.99,,,-99.99,,2013-02-28 19:48:00,
2013-02-28 14:54:00,48.2,28.4,29.45,NW,312,12.7,-999.9,46,-99.99,,,-99.99,,2013-02-28 19:54:00,
2013-02-28 15:02:00,48.2,30.2,29.46,NW,311,10.4,-999.9,50,-99.99,,,-99.99,,2013-02-28 20:02:00,
2013-02-28 15:08:00,48.2,30.2,29.46,NW,311,10.4,-999.9,50,-99.99,,,-99.99,,2013-02-28 20:08:00,
2013-02-28 15:14:00,48.2,30.2,29.46,NW,310,11.5,-999.9,50,-99.99,,,-99.99,,2013-02-28 20:14:00,
2013-02-28 15:22:00,48.2,30.2,29.46,NW,324,16.1,-999.9,50,-99.99,,,-99.99,,2013-02-28 20:22:00,
2013-02-28 15:28:00,48.2,30.2,29.46,NW,324,16.1,-999.9,50,-99.99,,,-99.99,,2013-02-28 20:28:00,
2013-02-28 15:34:00,48.2,30.2,29.46,NW,314,11.5,-999.9,50,-99.99,,,-99.99,,2013-02-28 20:34:00,
2013-02-28 15:42:00,48.2,30.2,29.46,NW,324,12.7,-999.9,50,-99.99,,,-99.99,,2013-02-28 20:42:00,
2013-02-28 15:48:00,48.2,30.2,29.46,NW,324,12.7,-999.9,50,-99.99,,,-99.99,,2013-02-28 20:48:00,
2013-02-28 15:54:00,48.2,30.2,29.46,NNW,334,18.4,-999.9,50,-99.99,,,-99.99,,2013-02-28 20:54:00,
2013-02-28 16:02:00,48.2,32.0,29.46,WNW,302,17.3,-999.9,54,-99.99,,,-99.99,,2013-02-28 21:02:00,
2013-02-28 16:08:00,48.2,32.0,29.46,WNW,302,17.3,-999.9,54,-99.99,,,-99.99,,2013-02-28 21:08:00,
2013-02-28 16:14:00,46.4,30.2,29.46,NW,309,16.1,-999.9,53,-99.99,,,-99.99,,2013-02-28 21:14:00,
2013-02-28 16:22:00,48.2,32.0,29.46,NW,323,12.7,-999.9,54,-99.99,,,-99.99,,2013-02-28 21:22:00,
2013-02-28 16:28:00,48.2,32.0,29.46,NW,323,12.7,-999.9,54,-99.99,,,-99.99,,2013-02-28 21:28:00,
2013-02-28 16:34:00,46.4,30.2,29.46,NW,316,12.7,-999.9,53,-99.99,,,-99.99,,2013-02-28 21:34:00,
2013-02-28 16:42:00,48.2,32.0,29.46,NW,315,12.7,-999.9,54,-99.99,,,-99.99,,2013-02-28 21:42:00,
2013-02-28 16:48:00,48.2,32.0,29.46,NW,315,12.7,-999.9,54,-99.99,,,-99.99,,2013-02-28 21:48:00,
2013-02-28 16:54:00,46.4,30.2,29.46,NW,305,13.8,-999.9,53,-99.99,,,-99.99,,2013-02-28 21:54:00,
2013-02-28 17:02:00,46.4,30.2,29.46,WNW,301,6.9,-999.9,53,-99.99,,,-99.99,,2013-02-28 22:02:00,
2013-02-28 17:08:00,46.4,30.2,29.46,WNW,301,6.9,-999.9,53,-99.99,,,-99.99,,2013-02-28 22:08:00,
2013-02-28 17:14:00,46.4,32.0,29.46,NW,325,11.5,-999.9,57,-99.99,,,-99.99,,2013-02-28 22:14:00,
2013-02-28 17:22:00,46.4,32.0,29.46,NNW,331,17.3,-999.9,57,-99.99,,,-99.99,,2013-02-28 22:22:00,
2013-02-28 17:28:00,46.4,32.0,29.46,NNW,331,17.3,-999.9,57,-99.99,,,-99.99,,2013-02-28 22:28:00,
2013-02-28 17:34:00,46.4,32.0,29.47,NNW,333,15.0,-999.9,57,-99.99,,,-99.99,,2013-02-28 22:34:00,
2013-02-28 17:42:00,46.4,32.0,29.47,NW,320,9.2,-999.9,57,-99.99,,,-99.99,,2013-02-28 22:42:00,
2013-02-28 17:48:00,46.4,32.0,29.47,NW,320,9.2,-999.9,57,-99.99,,,-99.99,,2013-02-28 22:48:00,
2013-02-28 17:54:00,46.4,32.0,29.47,NNW,337,15.0,-999.9,57,-99.99,,,-99.99,,2013-02-28 22:54:00,
2013-02-28 18:02:00,46.4,32.0,29.48,NNW,329,16.1,-999.9,57,-99.99,,,-99.99,,2013-02-28 23:02:00,
2013-02-28 18:08:00,46.4,32.0,29.48,NNW,329,16.1,-999.9,57,-99.99,,,-99.99,,2013-02-28 23:08:00,
2013-02-28 18:14:00,46.4,32.0,29.48,NNW,336,16.1,-999.9,57,-99.99,,,-99.99,,2013-02-28 23:14:00,
2013-02-28 18:22:00,46.4,32.0,29.48,NW,326,17.3,-999.9,57,-99.99,,,-99.99,,2013-02-28 23:22:00,
2013-02-28 18:28:00,46.4,32.0,29.48,NW,326,17.3,-999.9,57,-99.99,,,-99.99,,2013-02-28 23:28:00,
2013-02-28 18:34:00,46.4,30.2,29.49,WNW,296,12.7,-999.9,53,-99.99,,,-99.99,,2013-02-28 23:34:00,
2013-02-28 18:42:00,46.4,32.0,29.49,NW,321,8.1,-999.9,57,-99.99,,,-99.99,,2013-02-28 23:42:00,
2013-02-28 18:48:00,46.4,32.0,29.49,NW,321,8.1,-999.9,57,-99.99,,,-99.99,,2013-02-28 23:48:00,
2013-02-28 18:54:00,46.4,32.0,29.49,NNW,327,9.2,-999.9,57,-99.99,,,-99.99,,2013-02-28 23:54:00,
2013-02-28 19:02:00,46.4,32.0,29.49,NW,322,11.5,-999.9,57,-99.99,,,-99.99,,2013-03-01 00:02:00,
2013-02-28 19:08:00,46.4,32.0,29.49,NW,322,11.5,-999.9,57,-99.99,,,-99.99,,2013-03-01 00:08:00,
2013-02-28 19:14:00,46.4,30.2,29.50,NW,321,13.8,-999.9,53,-99.99,,,-99.99,,2013-03-01 00:14:00,
2013-02-28 20:10:00,44.6,28.4,29.51,NNW,333,16.1,-999.9,53,-99.99,,,-99.99,,2013-03-01 01:10:00,
2013-02-28 20:18:00,44.6,28.4,29.51,NNW,333,16.1,-999.9,53,-99.99,,,-99.99,,2013-03-01 01:18:00,
2013-02-28 20:24:00,44.6,28.4,29.51,NW,314,13.8,-999.9,53,-99.99,,,-99.99,,2013-03-01 01:24:00,
2013-02-28 20:32:00,44.6,28.4,29.51,NW,312,11.5,-999.9,53,-99.99,,,-99.99,,2013-03-01 01:32:00,
2013-02-28 20:38:00,44.6,28.4,29.51,NW,312,11.5,-999.9,53,-99.99,,,-99.99,,2013-03-01 01:38:00,
2013-02-28 20:44:00,44.6,28.4,29.51,NNW,327,13.8,-999.9,53,-99.99,,,-99.99,,2013-03-01 01:44:00,
2013-02-28 20:52:00,44.6,28.4,29.51,NNW,331,17.3,-999.9,53,-99.99,,,-99.99,,2013-03-01 01:52:00,
2013-02-28 20:58:00,44.6,28.4,29.51,NNW,331,17.3,-999.9,53,-99.99,,,-99.99,,2013-03-01 01:58:00,
2013-02-28 21:04:00,44.6,28.4,29.51,NW,324,19.6,-999.9,53,-99.99,,,-99.99,,2013-03-01 02:04:00,
2013-02-28 21:12:00,44.6,30.2,29.51,NW,312,15.0,-999.9,57,-99.99,,,-99.99,,2013-03-01 02:12:00,
2013-02-28 21:18:00,44.6,30.2,29.51,NW,312,15.0,-999.9,57,-99.99,,,-99.99,,2013-03-01 02:18:00,
2013-02-28 21:24:00,44.6,30.2,29.52,NW,306,13.8,-999.9,57,-99.99,,,-99.99,,2013-03-01 02:24:00,
2013-02-28 21:32:00,44.6,30.2,29.52,NW,304,17.3,-999.9,57,-99.99,,,-99.99,,2013-03-01 02:32:00,
2013-02-28 21:38:00,44.6,30.2,29.52,NW,304,17.3,-999.9,57,-99.99,,,-99.99,,2013-03-01 02:38:00,
2013-02-28 21:44:00,42.8,28.4,29.52,NW,319,16.1,-999.9,57,-99.99,,,-99.99,,2013-03-01 02:44:00,
2013-02-28 21:52:00,42.8,28.4,29.52,NW,309,12.7,-999.9,57,-99.99,,,-99.99,,2013-03-01 02:52:00,
2013-02-28 21:58:00,42.8,28.4,29.52,NW,309,12.7,-999.9,57,-99.99,,,-99.99,,2013-03-01 02:58:00,
2013-02-28 22:04:00,42.8,28.4,29.52,WNW,282,12.7,-999.9,57,-99.99,,,-99.99,,2013-03-01 03:04:00,
2013-02-28 22:12:00,42.8,30.2,29.52,WNW,302,10.4,-999.9,61,-99.99,,,-99.99,,2013-03-01 03:12:00,
2013-02-28 22:18:00,42.8,30.2,29.52,WNW,302,10.4,-999.9,61,-99.99,,,-99.99,,2013-03-01 03:18:00,
2013-02-28 22:24:00,42.8,30.2,29.52,NW,317,15.0,-999.9,61,-99.99,,,-99.99,,2013-03-01 03:24:00,
2013-02-28 22:32:00,42.8,30.2,29.52,NW,314,17.3,-999.9,61,-99.99,,,-99.99,,2013-03-01 03:32:00,
2013-02-28 22:38:00,42.8,30.2,29.52,NW,314,17.3,-999.9,61,-99.99,,,-99.99,,2013-03-01 03:38:00,
2013-02-28 22:44:00,42.8,30.2,29.52,WNW,295,8.1,-999.9,61,-99.99,,,-99.99,,2013-03-01 03:44:00,
2013-02-28 22:52:00,42.8,30.2,29.52,NW,310,20.7,-999.9,61,-99.99,,,-99.99,,2013-03-01 03:52:00,
2013-02-28 22:58:00,42.8,30.2,29.52,NW,310,20.7,-999.9,61,-99.99,,,-99.99,,2013-03-01 03:58:00,
2013-02-28 23:04:00,42.8,30.2,29.53,NW,311,19.6,-999.9,61,-99.99,,,-99.99,,2013-03-01 04:04:00,
2013-02-28 23:14:00,42.8,30.2,29.53,NW,318,12.7,-999.9,61,-99.99,,,-99.99,,2013-03-01 04:14:00,
2013-02-28 23:22:00,42.8,30.2,29.53,NW,321,11.5,-999.9,61,-99.99,,,-99.99,,2013-03-01 04:22:00,
2013-02-28 23:28:00,42.8,30.2,29.53,NW,321,11.5,-999.9,61,-99.99,,,-99.99,,2013-03-01 04:28:00,
2013-02-28 23:34:00,41.0,30.2,29.53,NW,306,12.7,-999.9,65,-99.99,,,-99.99,,2013-03-01 04:34:00,
2013-02-28 23:42:00,41.0,30.2,29.53,NW,309,11.5,-999.9,65,-99.99,,,-99.99,,2013-03-01 04:42:00,
2013-02-28 23:48:00,41.0,30.2,29.53,NW,309,11.5,-999.9,65,-99.99,,,-99.99,,2013-03-01 04:48:00,
2013-02-28 23:54:00,41.0,30.2,29.53,NW,317,18.4,-999.9,65,-99.99,,,-99.99,,2013-03-01 04:54:00,